CAPE
0 0 0 0 0 0 0 0 2 0 0 0 0 0 0 0 0 0 0 0 0 0 0 0 0 0 0 0 0 0 0 0 0 0 0 0 0 0 0 0 0 0 0 0
0 0 0 5 0 0 0 0 0 0 0 0 0 0 0 0 0 0 0 0 0 0 0 0 0 0 0 0 0 0 0 0 0 0 0 0 0 0 0 0 0 0 0 0
0 0 0 0 0 0 0 0 0 0 0 0 0 0 0 0 0 0 0 0 0 0 0 0 0 0 0 0 0 0 0 0 0 0 0 0 0 0 0 0 0 0 0 0
0 0 0 0 0 0 0 0 0 0 0 0 0 0 0 0 0 0 0 0 0 0 0 0 0 0 0 0 0 0 0 0 0 0 0 1 0 0 0 0 0 0 0 0
6 0 0 0 0 0 0 0 0 0 0 0 0 0 0 0 0 0 0 0 0 0 0 0 0 0 0 0 0 0 0 0 0 0 0 0 0 0 0 0 0 0 0 0
0 0 0 0 0 0 0 0 0 0 0 0 0 0 0 0 0 0 0 0 0 0 0 0 0 0 0 0 0 0 0 0 0 0 0 0 0 0 0 0 0 0 0 0
0 0 0 0 0 0 0 0 0 0 0 0 0 0 0 0 0 0 0 0 0 0 0 0 0 0 0 0 0 0 0 0 0 0 0 0 0 0 2 0 0 0 0 0
0 0 0 0 0 0 0 0 0 0 0 0 0 0 0 0 0 0 0 0 0 0 0 0 0 0 0 0 0 0 0 0 0 0 0 0 5 3 1 0 0 0 0 0
0 0 0 0 0 0 0 0 0 0 0 0 0 0 0 0 0 0 0 0 0 0 0 0 0 0 0 0 0 0 0 0 0 0 0 0 4 1 3 0 0 0 0 0
4 0 0 0 0 0 0 0 0 0 0 0 0 0 0 0 0 0 0 0 0 0 0 0 0 0 0 0 0 0 0 0 0 0 0 2 7 4 2 0 0 0 0 0
2 0 0 0 0 0 0 0 0 0 0 0 0 0 0 0 0 0 0 0 0 0 0 0 0 0 0 0 0 0 0 0 0 2 0 0 0 0 0 0 0 0 0 0
0 0 0 0 0 0 0 0 0 0 0 0 0 0 0 0 0 0 0 0 0 0 0 0 0 0 0 0 0 0 0 0 0 0 3 0 0 0 0 0 0 0 0 0
0 0 0 0 0 0 0 0 0 0 0 0 0 0 0 0 0 0 3 0 0 0 0 0 0 0 2 0 0 0 0 0 4 0 0 0 0 0 0 0 0 0 0 0
0 0 0 0 0 0 0 0 0 0 0 0 0 0 2 9 0 16 5 0 0 0 0 0 0 1 4 0 0 1 1 0 0 0 0 0 0 0 0 0 0 0 0 0
0 0 0 0 0 0 0 0 0 0 0 0 1 10 2 1 7 5 0 0 0 2 2 0 2 11 10 3 15 8 4 6 4 0 0 0 0 0 0 0 0 0 0 0
0 0 2 1 1 3 1 0 0 0 0 0 0 0 1 0 0 1 0 2 1 5 1 0 0 0 1 4 0 1 4 0 0 0 0 0 0 0 0 0 0 0 0 0
3 0 0 9 11 9 0 0 0 0 1 0 2 1 1 2 2 0 0 1 0 0 0 0 0 0 0 1 0 0 0 0 0 0 0 0 0 0 0 0 0 0 0 0
2 6 6 10 7 5 0 0 2 2 1 1 1 0 0 0 1 0 0 0 0 0 0 0 1 0 0 0 0 0 0 0 0 0 0 0 0 0 0 0 0 0 0 0
0 5 5 6 5 3 2 1 0 0 0 0 0 0 0 0 0 0 0 0 0 0 0 0 0 0 0 0 0 0 0 0 0 0 0 0 0 0 0 0 0 0 0 0
1 1 2 1 3 2 0 0 0 0 0 0 0 0 0 0 0 0 0 0 0 0 0 0 0 0 0 0 0 0 0 0 0 0 0 0 0 0 0 0 0 0 0 0
0 0 0 0 0 0 0 0 0 0 0 0 0 0 0 0 0 0 0 0 0 0 0 0 0 0 0 0 0 0 0 0 0 0 0 0 0 0 0 0 0 0 0 0
0 0 0 0 0 0 0 0 0 0 0 0 0 0 0 0 0 0 0 0 0 0 0 0 0 0 0 0 0 0 0 0 0 0 0 0 0 0 0 0 0 0 0 0
0 0 0 0 0 0 0 0 0 0 0 0 0 0 0 0 0 0 0 0 0 0 0 0 0 0 0 0 0 0 0 0 0 0 0 0 0 0 0 0 0 0 0 0
0 0 0 0 0 0 0 0 0 0 0 0 0 0 0 0 0 0 0 0 0 0 0 0 0 0 0 0 0 0 0 0 0 0 0 0 0 0 0 0 0 0 0 0
0 0 0 0 0 0 0 0 0 0 0 0 0 0 0 0 0 0 0 0 0 0 0 0 0 0 0 0 0 0 0 0 0 0 0 0 0 0 0 0 0 0 0 0
0 0 0 0 0 0 0 0 0 0 0 0 0 0 0 0 0 0 0 0 0 0 0 0 0 0 0 0 0 0 0 0 0 0 0 0 0 0 0 0 0 0 0 0
0 0 0 0 0 0 0 0 0 0 0 0 0 0 0 0 0 0 0 0 0 0 0 0 0 0 0 0 0 0 0 0 0 0 0 0 0 0 0 0 0 0 0 0
CIN
-0 -0 -0 -0 -0 -0 -0 -0 -0 -0 -0 -0 -0 -0 -0 -0 -0 -0 -0 -0 -0 -0 -0 -0 -0 -0 -0 -0 -0 -0 -0 -0 -0 -0 -0 -0 -0 -0 -0 -0 -0 -0 -0 -0
-0 -0 -0 -2 -0 -0 -0 -0 -0 -0 -0 -0 -0 -0 -0 -0 -0 -0 -0 -0 -0 -0 -0 -0 -0 -0 -0 -0 -0 -0 -0 -0 -0 -0 -0 -0 -0 -0 -0 -0 -0 -0 -0 -0
-0 -0 -0 -0 -0 -0 -0 -0 -0 -0 -0 -0 -0 -0 -0 -0 -0 -0 -0 -0 -0 -0 -0 -0 -0 -0 -0 -0 -0 -0 -0 -0 -0 -0 -0 -0 -0 -0 -0 -0 -0 -0 -0 -0
-0 -0 -0 -0 -0 -0 -0 -0 -0 -0 -0 -0 -0 -0 -0 -0 -0 -0 -0 -0 -0 -0 -0 -0 -0 -0 -0 -0 -0 -0 -0 -0 -0 -0 -0 -0 -0 -0 -0 -0 -0 -0 -0 -0
-2 -0 -0 -0 -0 -0 -0 -0 -0 -0 -0 -0 -0 -0 -0 -0 -0 -0 -0 -0 -0 -0 -0 -0 -0 -0 -0 -0 -0 -0 -0 -0 -0 -0 -0 -0 -0 -0 -0 -0 -0 -0 -0 -0
-0 -1 -0 -0 -0 -0 -0 -0 -0 -0 -0 -0 -0 -0 -0 -0 -0 -0 -0 -0 -0 -0 -0 -0 -0 -0 -0 -0 -0 -0 -0 -0 -0 -0 -0 -0 -0 -0 -0 -0 -0 -0 -0 -0
-0 -0 -0 -0 -0 -0 -0 -0 -0 -0 -0 -0 -0 -0 -0 -0 -0 -0 -0 -0 -0 -0 -0 -0 -0 -0 -0 -0 -0 -0 -0 -0 -0 -0 -0 -0 -0 -0 -0 -0 -0 -0 -0 -0
-0 -0 -0 -0 -0 -0 -0 -0 -0 -0 -0 -0 -0 -0 -0 -0 -0 -0 -0 -0 -0 -0 -0 -0 -0 -0 -0 -0 -0 -0 -0 -0 -0 -0 -0 -0 -0 -0 -0 -0 -0 -0 -0 -0
-0 -0 -0 -0 -0 -0 -0 -0 -0 -0 -0 -0 -0 -0 -0 -0 -0 -0 -0 -0 -0 -0 -0 -0 -0 -0 -0 -0 -0 -0 -0 -0 -0 -0 -0 -0 -0 -0 -0 -0 -0 -0 -0 -0
-0 -0 -0 -0 -0 -0 -0 -0 -0 -0 -0 -0 -0 -0 -0 -0 -0 -0 -0 -0 -0 -0 -0 -0 -0 -0 -0 -0 -0 -0 -0 -0 -0 -0 -0 -0 -0 -0 -0 -0 -0 -0 -0 -0
-1 -0 -0 -0 -0 -0 -0 -0 -0 -0 -0 -0 -0 -0 -0 -0 -0 -0 -0 -0 -0 -0 -0 -0 -0 -0 -0 -0 -0 -0 -0 -0 -0 -0 -0 -0 -0 -0 -0 -0 -0 -0 -0 -0
-0 -0 -0 -0 -0 -0 -0 -0 -0 -0 -0 -0 -0 -0 -0 -0 -0 -0 -0 -0 -0 -0 -0 -0 -0 -0 -0 -0 -0 -0 -0 -0 -0 -0 -0 -0 -0 -0 -0 -0 -0 -0 -0 -0
-0 -0 -0 -0 -0 -0 -0 -0 -0 -0 -0 -0 -0 -0 -0 -0 -0 -0 -3 -3 -0 -0 -0 -0 -0 -0 -0 -0 -0 -0 -0 -0 -0 -0 -0 -0 -0 -0 -0 -0 -0 -0 -0 -0
-0 -0 -0 -0 -0 -0 -0 -0 -0 -0 -0 -0 -0 -0 -1 -1 -0 -0 -0 -0 -0 -0 -0 -0 -0 -0 -0 -0 -0 -0 -0 -0 -0 -0 -0 -0 -0 -0 -0 -0 -0 -0 -0 -0
-0 -0 -0 -0 -0 -0 -0 -0 -0 -0 -0 -0 -2 -1 -1 -0 -0 -0 -0 -0 -0 -0 -0 -0 -0 -0 -0 -0 -0 -0 -0 -0 -0 -0 -0 -0 -0 -0 -0 -0 -0 -0 -0 -0
-0 -0 -0 -1 -0 -1 -0 -0 -0 -0 -0 -0 -1 -0 -0 -0 -0 -0 -0 -0 -0 -0 -0 -0 -0 -0 -0 -0 -0 -0 -0 -0 -0 -0 -0 -0 -0 -0 -0 -0 -0 -0 -0 -0
-0 -0 -0 -0 -0 -0 -0 -0 -0 -0 -0 -0 -0 -0 -0 -0 -0 -0 -0 -0 -0 -0 -0 -0 -0 -0 -0 -0 -0 -0 -0 -0 -0 -0 -0 -0 -0 -0 -0 -0 -0 -0 -0 -0
-0 -0 -0 -0 -0 -0 -0 -0 -0 -0 -0 -0 -0 -0 -0 -0 -0 -0 -0 -0 -0 -0 -0 -0 -0 -0 -0 -0 -0 -0 -0 -0 -0 -0 -0 -0 -0 -0 -0 -0 -0 -0 -0 -0
-0 -0 -0 -0 -0 -0 -0 -0 -0 -0 -0 -0 -0 -0 -0 -0 -0 -0 -0 -0 -0 -0 -0 -0 -0 -0 -0 -0 -0 -0 -0 -0 -0 -0 -0 -0 -0 -0 -0 -0 -0 -0 -0 -0
-0 -0 -0 -0 -0 -0 -0 -0 -0 -0 -0 -0 -0 -0 -0 -0 -0 -0 -0 -0 -0 -0 -0 -0 -0 -0 -0 -0 -0 -0 -0 -0 -0 -0 -0 -0 -0 -0 -0 -0 -0 -0 -0 -0
-0 -0 -0 -0 -0 -0 -0 -0 -0 -0 -0 -0 -0 -0 -0 -0 -0 -0 -0 -0 -0 -0 -0 -0 -0 -0 -0 -0 -0 -0 -0 -0 -0 -0 -0 -0 -0 -0 -0 -0 -0 -0 -0 -0
-0 -0 -0 -0 -0 -0 -0 -0 -0 -0 -0 -0 -0 -0 -0 -0 -0 -0 -0 -0 -0 -0 -0 -0 -0 -0 -0 -0 -0 -0 -0 -0 -0 -0 -0 -0 -0 -0 -0 -0 -0 -0 -0 -0
-0 -0 -0 -0 -0 -0 -0 -0 -0 -0 -0 -0 -0 -0 -0 -0 -0 -0 -0 -0 -0 -0 -0 -0 -0 -0 -0 -0 -0 -0 -0 -0 -0 -0 -0 -0 -0 -0 -0 -0 -0 -0 -0 -0
-0 -0 -0 -0 -0 -0 -0 -0 -0 -0 -0 -0 -0 -0 -0 -0 -0 -0 -0 -0 -0 -0 -0 -0 -0 -0 -0 -0 -0 -0 -0 -0 -0 -0 -0 -0 -0 -0 -0 -0 -0 -0 -0 -0
-0 -0 -0 -0 -0 -0 -0 -0 -0 -0 -0 -0 -0 -0 -0 -0 -0 -0 -0 -0 -0 -0 -0 -0 -0 -0 -0 -0 -0 -0 -0 -0 -0 -0 -0 -0 -0 -0 -0 -0 -0 -0 -0 -0
-0 -0 -0 -0 -0 -0 -0 -0 -0 -0 -0 -0 -0 -0 -0 -0 -0 -0 -0 -0 -0 -0 -0 -0 -0 -0 -0 -0 -0 -0 -0 -0 -0 -0 -0 -0 -0 -0 -0 -0 -0 -0 -0 -0
-0 -0 -0 -0 -0 -0 -0 -0 -0 -0 -0 -0 -0 -0 -0 -0 -0 -0 -0 -0 -0 -0 -0 -0 -0 -0 -0 -0 -0 -0 -0 -0 -0 -0 -0 -0 -0 -0 -0 -0 -0 -0 -0 -0
Wind_Speed
9 14 14 12 11 10 13 11 7 6 11 27 17 14 15 9 12 11 11 12 10 12 13 11 8 6 4 5 5 6 8 9 10 11 12 13 14 14 13 14 13 14 14 11
5 11 11 15 16 15 13 14 15 19 20 25 23 15 15 9 6 12 10 12 17 16 13 12 8 7 5 6 7 8 9 9 10 12 13 13 13 15 14 14 13 13 13 13
9 7 6 9 22 15 10 11 16 16 23 22 19 12 13 7 6 12 14 13 16 19 15 11 8 7 7 7 6 9 10 10 11 12 12 13 14 15 14 15 15 13 12 12
6 3 9 15 6 14 21 19 16 15 17 22 21 16 14 8 13 14 10 15 18 14 13 13 10 6 6 7 10 11 11 11 12 14 12 10 13 13 12 12 13 12 12 12
3 5 9 20 9 4 6 15 13 17 20 24 21 17 16 13 13 10 11 14 14 13 11 15 13 7 7 8 9 11 13 15 16 15 16 14 14 13 11 13 12 9 10 12
2 5 9 2 3 6 4 14 26 18 19 18 16 11 15 15 9 10 10 10 12 17 16 14 11 7 7 9 10 15 15 16 15 13 15 16 15 14 11 11 12 11 11 10
11 9 9 7 7 6 6 13 3 4 12 13 10 10 15 16 11 8 8 10 12 13 14 16 8 7 9 8 16 14 9 11 12 13 13 13 15 13 14 14 14 12 12 9
6 8 16 9 4 11 13 9 7 6 9 7 8 15 19 20 13 13 15 13 9 9 14 15 8 6 13 13 8 8 11 12 14 13 12 12 16 12 14 15 14 12 11 8
8 10 4 5 8 7 5 9 11 8 14 15 18 18 18 21 14 13 15 15 13 14 16 16 8 5 14 14 9 10 11 12 13 13 13 14 16 16 13 12 13 12 9 8
15 21 27 25 24 21 23 20 19 22 23 19 18 19 22 20 19 12 12 13 15 15 14 15 4 5 13 6 11 13 14 13 15 15 15 14 11 11 12 12 11 11 10 9
19 24 25 23 23 22 21 21 21 22 20 19 17 21 21 22 22 17 15 13 11 14 14 12 4 3 3 9 14 14 13 12 13 11 13 14 10 10 11 9 10 13 10 10
17 21 18 22 19 18 16 16 18 18 21 20 19 22 23 23 21 18 17 13 12 12 9 7 5 4 6 10 15 17 15 11 12 12 10 12 12 11 12 16 19 14 15 13
22 22 21 25 18 19 20 20 20 20 20 21 22 21 22 23 20 21 19 17 18 15 11 8 8 8 8 10 13 15 15 15 12 13 11 13 13 13 14 10 17 18 16 16
17 16 14 17 12 13 13 16 16 15 16 18 19 19 23 18 13 20 20 18 11 10 10 10 10 9 10 11 12 13 13 18 13 12 12 12 12 11 11 12 11 7 12 12
8 9 13 15 18 16 15 13 13 14 16 17 15 16 13 14 16 13 4 6 9 10 10 10 11 10 11 12 13 14 13 11 12 11 11 12 12 11 11 11 10 9 8 7
14 14 15 14 15 13 12 12 12 15 16 16 16 10 6 6 3 3 4 8 10 9 10 10 10 10 11 13 15 12 12 17 14 12 12 11 10 11 10 11 10 9 8 8
12 17 17 15 14 14 17 15 15 17 16 6 6 7 7 3 5 6 6 6 7 8 9 10 11 11 11 12 13 9 11 13 16 11 10 10 10 10 10 10 9 8 7 7
9 12 13 14 14 14 16 14 13 13 5 5 5 6 6 6 6 7 9 12 13 13 11 11 11 11 10 10 12 10 12 11 10 11 10 10 10 10 10 10 10 10 8 7
11 12 12 12 11 11 11 11 9 4 5 5 5 7 8 8 7 7 8 13 14 15 10 13 15 14 12 12 13 10 11 11 11 9 10 13 10 9 10 10 10 9 8 7
9 10 10 11 9 6 9 6 4 4 4 4 6 8 11 11 9 10 11 12 9 8 13 15 14 13 12 13 14 10 11 11 10 10 9 9 10 10 10 12 11 10 8 8
10 10 10 9 8 7 6 4 3 3 4 6 7 9 12 11 10 9 11 9 8 11 13 15 11 8 8 10 10 9 9 10 10 10 10 9 10 10 10 10 9 9 8 7
7 8 9 9 8 8 7 5 4 5 7 7 7 8 11 12 13 14 12 9 6 12 9 8 8 12 10 13 8 8 8 9 9 9 9 10 9 9 9 10 9 9 8 8
5 6 7 9 9 7 7 8 8 8 9 8 8 9 9 7 5 8 7 5 7 10 9 8 11 12 14 9 8 7 8 9 9 8 9 9 9 9 9 9 9 9 8 8
4 4 5 6 6 7 9 8 9 8 9 9 8 8 6 6 7 6 8 9 12 12 9 8 10 13 10 7 7 7 7 8 8 8 9 11 8 9 9 9 9 8 8 9
2 3 3 4 5 5 6 6 6 7 9 8 8 8 7 5 4 4 7 7 11 10 8 11 11 11 7 7 7 7 7 7 8 8 8 9 9 9 8 8 9 8 8 7
1 1 2 3 2 3 3 3 4 4 4 6 6 5 5 5 6 6 7 8 8 10 7 6 6 6 6 6 7 7 7 8 8 8 9 9 9 8 8 8 8 8 8 7
2 1 1 2 2 2 2 3 3 3 3 4 5 4 4 4 6 6 7 6 6 6 6 5 5 6 6 6 6 7 6 6 7 7 7 8 8 8 8 8 8 8 7 7
Wind_Direction
243 267 280 271 269 259 252 239 243 276 277 279 288 307 301 295 299 296 309 316 321 315 312 307 310 293 234 196 175 141 143 153 152 147 149 149 149 144 138 144 145 140 134 137
263 264 261 276 277 264 243 240 248 253 259 263 279 282 281 271 274 299 297 304 311 313 306 303 295 279 235 203 183 163 164 165 155 155 154 151 148 146 145 142 138 138 143 141
257 264 279 276 242 242 238 222 220 233 237 260 280 276 285 313 314 289 285 300 304 304 300 305 313 262 240 205 171 178 170 159 162 156 154 156 154 147 151 149 142 143 136 135
262 146 241 243 190 217 226 241 238 258 267 269 271 275 288 273 279 273 275 290 293 291 299 299 305 289 252 179 185 183 168 167 165 163 157 158 154 149 142 143 142 141 133 131
244 200 277 280 257 209 196 265 256 247 257 265 270 280 274 259 251 245 249 271 278 285 282 295 304 296 239 193 190 190 188 178 175 169 162 157 151 142 138 131 125 125 129 129
101 231 240 78 65 208 210 272 247 245 246 260 275 279 275 276 258 249 240 253 273 283 290 290 297 288 235 207 196 207 196 184 179 171 164 156 148 144 136 132 125 124 122 127
238 245 264 229 206 145 168 252 97 229 226 244 250 234 264 280 278 257 238 247 258 271 280 286 288 282 267 218 214 215 194 170 160 158 156 152 138 137 135 127 125 126 129 139
223 238 263 215 175 206 233 279 272 251 252 247 251 274 270 277 272 271 277 276 249 263 274 278 275 266 286 243 216 171 166 158 145 146 140 142 141 134 133 132 128 132 131 127
203 228 265 245 229 249 285 260 247 251 280 284 282 273 276 276 273 274 276 275 266 262 267 273 269 236 279 270 155 151 149 142 133 133 136 139 140 140 136 137 138 136 139 140
266 257 259 265 270 272 271 265 268 274 280 281 271 269 271 271 272 265 254 254 262 258 255 265 271 245 258 185 154 151 135 137 136 135 138 137 143 147 143 143 137 137 142 141
259 266 276 267 264 267 269 268 267 270 272 271 265 269 267 268 269 270 261 249 244 246 253 257 290 290 207 154 146 135 128 141 131 138 139 130 131 139 139 133 143 148 152 151
256 263 270 276 277 276 267 265 266 270 277 268 264 266 266 265 266 262 260 263 254 237 226 232 197 158 158 161 141 136 134 140 138 135 145 133 130 114 94 122 121 118 135 142
257 262 267 273 278 274 268 265 265 266 266 271 272 269 267 265 261 262 258 258 249 233 216 177 170 168 160 142 144 145 140 144 138 135 151 138 141 138 129 97 109 118 118 122
270 279 277 275 275 279 268 262 265 267 266 269 273 279 275 272 296 271 248 248 225 177 168 165 163 156 150 144 144 139 142 145 138 148 143 135 137 134 130 129 128 124 122 129
289 311 289 292 293 287 279 285 285 284 283 285 277 294 275 291 278 256 227 144 151 152 151 155 146 153 156 145 141 146 141 139 136 132 125 124 124 121 118 119 119 119 115 111
309 309 306 307 313 312 316 309 300 294 297 290 294 301 309 286 331 87 119 137 147 158 149 142 139 142 138 139 138 138 122 118 119 118 121 118 119 122 119 119 121 124 130 133
313 312 315 308 309 307 308 304 299 295 286 308 11 8 359 40 70 55 82 103 103 109 117 126 121 118 122 130 129 128 116 109 115 111 113 116 116 116 117 117 118 120 119 122
305 298 296 301 304 307 307 307 299 303 18 25 16 18 30 36 68 86 94 96 88 78 76 85 90 93 100 113 108 109 103 109 112 111 114 113 115 117 119 122 123 122 116 111
318 311 310 304 307 303 301 301 318 355 48 38 43 46 50 49 55 70 94 97 97 91 84 94 93 89 91 92 98 97 100 104 102 107 109 114 113 118 118 117 118 116 116 115
322 320 315 316 315 314 316 315 340 54 23 60 63 66 64 53 54 65 67 69 75 89 92 87 87 88 88 85 92 96 101 106 112 113 113 114 118 120 118 120 123 124 122 117
337 330 332 337 333 335 328 344 39 37 49 45 70 75 70 63 54 65 74 76 65 80 83 85 89 87 90 92 91 95 102 108 112 115 117 117 120 119 119 123 122 120 118 116
342 338 344 350 354 352 354 13 45 59 71 68 64 67 75 73 72 66 56 72 67 74 77 75 80 87 87 87 87 96 101 107 111 113 117 119 121 123 122 124 125 122 125 123
345 342 347 359 4 356 15 37 45 58 66 61 70 71 68 69 79 95 81 41 77 83 84 88 99 99 97 92 94 102 105 107 109 113 115 118 121 123 124 128 124 126 125 124
340 353 358 348 1 25 33 30 47 52 64 63 57 61 66 86 72 72 92 96 99 98 99 102 94 88 84 92 97 100 106 106 111 115 115 117 118 119 122 125 124 127 125 123
323 1 30 23 16 18 21 25 53 53 57 57 53 52 49 39 80 89 89 93 93 93 93 92 93 90 89 95 97 99 102 108 114 117 119 122 121 121 124 126 128 134 128 130
353 56 52 65 43 17 18 37 59 50 68 68 55 53 53 65 79 86 88 94 96 103 102 102 101 97 102 104 106 103 103 110 114 118 123 121 120 124 129 131 131 131 131 129
117 91 47 58 51 44 38 56 70 72 64 85 87 69 80 80 86 92 99 99 101 104 103 102 105 104 104 104 102 103 106 110 116 119 121 120 127 133 136 137 133 131 129 130